User: anonymous   Login
Location: Unspecified
(0.0000°N, 0.0000°E)
Time: 04:34:11
(UTC+02:00)
Language:

ADEOS II - Orbit

View from above orbital plane
View from above orbital plane
View from above satellite
View from above satellite

Ground track
Ground track

The orbit data is extracted from the following two-line orbital elements,

1 27597U 02056A   17146.53026136 +.00000016 +00000-0 +23440-4 0  9992
2 27597 098.3675 117.0134 0002033 063.8066 296.3324 14.27285957752333
Epoch (UTC): 26 May 2017 12:43:34
Eccentricity: 0.0002033
inclination: 98.3675°
perigee height: 799 km
apogee height: 802 km
right ascension of ascending node: 117.0134°
argument of perigee: 63.8066°
revolutions per day: 14.27285957
mean anomaly at epoch: 296.3324°
orbit number at epoch: 75233

The dashed part of the orbit path shows where the satellite is in the earth's shadow,  

DLR